Вернуться в каталог

ATLAS 5 CENTAUR DEB

АктивенHEO
NORAD 44015·DEBRIS·🇺🇸 United States

Запущен Sep 17, 2014 с Cape Canaveral Space Force Station

Loading…

Ближайшие Пролёты (ближайшие 24 часа)

TLE

СвежийSource: Space-Track

Эпоха: Sep 13, 2026, 09:07 UTC

1 44015U 14055BW  26256.38028174 -.00000392  00000-0  00000+0 0  9997
2 44015  21.3008  76.2998 5089714 286.7357  24.9570  1.95143567 56282

Отслеживайте ATLAS 5 CENTAUR DEB в реальном времени с AllMySat

Download on the App Store